Powrót do katalogu

DELTA 1 R/B

AktywnySSO
NORAD 7946·ROCKET BODY·🇺🇸 United States

Wystrzelony Jun 12, 1975 z Vandenberg Space Force Base

Loading…

Następne Przeloty (najbliższe 24 godziny)

TLE

ŚwieżeSource: Space-Track

Epoka: Sep 14, 2026, 03:17 UTC

1 07946U 75052B   26257.13718360  .00000000  00000-0  62880-4 0  9994
2 07946  99.6309 149.0963 0045822 146.5745  24.4516 13.53822893747182

Śledź DELTA 1 R/B w czasie rzeczywistym z AllMySat

Download on the App Store